Regional Weather Roundup
Issued by NWS Charleston, WV

Current Version | Previous Version | Text Only | Print | Product List | Glossary On
Versions: 1 2 3 4 5 6 7 8 9 10 11 12 13 14 15 16 17 18 19 20 21 22 23 24 25 26 27 28 29 30 31 32 33 34 35 36 37 38 39 40 41 42 43 44 45 46 47 48 49 50
000
ASUS41 KRLX 180510
RWRRLX
Regional Weather Roundup
National Weather Service Charleston WV
1200 AM EST TUE FEB 18 2020

Note: "fair" indicates few or no clouds below 12,000 feet with no
significant weather and/or obstructions to visibility.

WVZ003-180600-
Northern Panhandle of West Virginia

CITY           SKY/WX    TMP DP  RH WIND       PRES   REMARKS
WHEELING       NOT AVBL
$$

WVZ009-180600-
Northwest West Virginia

CITY           SKY/WX    TMP DP  RH WIND       PRES   REMARKS
PARKERSBURG    FAIR      50  32  50 S9        29.98F
$$

WVZ006-180600-
Western West Virginia

CITY           SKY/WX    TMP DP  RH WIND       PRES   REMARKS
HUNTINGTON     FAIR      53  34  48 S6        29.97F
$$

WVZ015-180600-
West Central West Virginia

CITY           SKY/WX    TMP DP  RH WIND       PRES   REMARKS
CHARLESTON     MOCLDY    52  33  48 VRB5      30.01F
$$

WVZ022-031-180600-
North Central West Virginia

CITY           SKY/WX    TMP DP  RH WIND       PRES   REMARKS
MORGANTOWN     FAIR      49  26  41 S10G17    30.04F
CLARKSBURG     FAIR      50  29  44 SE6       30.04F
BUCKHANNON     FAIR      48  32  53 S7        30.04S
$$

WVZ025-035-042-045-180600-
Southern West Virginia

CITY           SKY/WX    TMP DP  RH WIND       PRES   REMARKS
BECKLEY        FAIR      43  32  65 SE13G22   30.09S
LOGAN          NOT AVBL
PINEVILLE      FAIR      41  36  82 MISG      30.12S
BLUEFIELD      FAIR      43  32  65 S17G30    30.10F
LEWISBURG      FAIR      42  32  67 CALM      30.16F
$$

WVZ047-180600-
Northern Mountains of West Virginia

CITY           SKY/WX    TMP DP  RH WIND       PRES   REMARKS
ELKINS         MOCLDY    46  28  49 S10       30.08F
$$

WVZ052-180600-
Eastern Panhandle of West Virginia

CITY           SKY/WX    TMP DP  RH WIND       PRES   REMARKS
MARTINSBURG    FAIR      43  22  43 SE3       30.21F
PETERSBURG     FAIR      43  26  51 S6        30.18R
$$

Southeast Ohio/Northeast Kentucky

CITY           SKY/WX    TMP DP  RH WIND       PRES   REMARKS
ATHENS         FAIR      49  33  53 S7        29.95F
ASHLAND        FAIR      44  39  82 E3        29.97F
$$




USA.gov is the U.S. government's official web portal to all federal, state and local government web resources and services.